Location: Titusville
(28.6120°N, 80.8080°W)
Time: 14:46:49
(UTC-04:00)

ISS - Visible Passes

Search period start: 19 March 2019 00:00
Search period end: 29 March 2019 00:00
Orbit: 406 x 411 km, 51.6° (Epoch: 20 March)

Date Brightness Start Highest point End Pass type
(mag) Time Alt. Az. Time Alt. Az. Time Alt. Az.
19 Mar -2.0 06:44:07 14° WSW 06:44:31 15° SW 06:46:26 10° SSW visible
19 Mar -2.4 20:05:10 10° S 20:07:45 21° SE 20:10:07 11° ENE visible
19 Mar -0.9 21:41:35 10° W 21:42:56 17° WNW 21:42:56 17° WNW visible
20 Mar -1.0 05:56:35 10° SSE 05:56:35 10° SSE 05:56:38 10° SSE visible
20 Mar -2.7 20:49:59 10° WSW 20:53:08 43° NW 20:55:13 18° NNE visible
21 Mar -3.9 19:58:52 10° SW 20:02:09 78° SE 20:05:26 10° NE visible
22 Mar -0.9 20:45:40 10° W 20:47:48 16° NW 20:49:56 10° N visible
23 Mar -1.8 19:53:42 10° WSW 19:56:39 30° NW 19:59:36 10° NNE visible
